Location: Unnamed
(45.3580°N, 90.2245°W)
Time: 02:56:03
(UTC-06:00)

X-37B - Visible Passes

Search period start: 27 February 2021 00:00
Search period end: 09 March 2021 00:00
Orbit: 383 x 391 km, 45.0° (Epoch: 10 February)

Date Brightness Start Highest point End Pass type
(mag) Time Alt. Az. Time Alt. Az. Time Alt. Az.
27 Feb 0.8 04:53:29 62° SSE 04:53:29 62° SSE 04:56:19 10° ESE visible
28 Feb 4.0 03:57:48 11° E 03:57:48 11° E 03:58:01 10° E visible
28 Feb 1.5 05:30:05 24° WSW 05:31:17 33° SSW 05:34:10 10° SE visible
01 Mar 2.4 04:34:28 26° SE 04:34:28 26° SE 04:36:06 10° ESE visible
01 Mar 2.8 06:07:34 10° WSW 06:09:10 13° SW 06:10:45 10° S visible
02 Mar 2.2 05:11:15 21° SSW 05:11:15 21° SSW 05:13:30 10° SSE visible
